Modesto, CA

7:16 PM PDT on June 23, 2017 (GMT -0700)
Modesto City-County-Sham

Weather History for KMOD - March, 2014

Change the Weather History Date:

Thursday, March 27, 2014

  Actual Average Record
Temperature  
Mean Temperature 56 °F -  
Max Temperature 65 °F 70 °F 87 °F (2015)
Min Temperature 46 °F 47 °F 35 °F (1936)
Degree Days  
Heating Degree Days 9 7  
Month to date heating degree days 127 212  
Since 1 July heating degree days 1825 1980  
Cooling Degree Days 0 0  
Month to date cooling degree days 0 0  
Year to date cooling degree days 0 0  
Growing Degree Days 5 (Base 50)    
Moisture  
Dew Point 45 °F    
Average Humidity 72    
Maximum Humidity 100    
Minimum Humidity 44    
Precipitation  
Precipitation 0.00 in 0.05 in 1.16 in (1963)
Month to date precipitation 1.07 1.85  
Year to date precipitation 3.99 6.84  
Since 1 July precipitation 5.48  
Snow  
Snow 0.00 in - - ()
Month to date snowfall 0.0  
Since 1 July snowfall 0.0  
Snow Depth -    
Sea Level Pressure  
Sea Level Pressure 30.06 in    
Wind  
Wind Speed 2 mph (NNE)    
Max Wind Speed 9 mph    
Max Gust Speed 13 mph    
Visibility 10 miles    
Events Rain    
T = Trace of Precipitation, MM = Missing Value Source: NWS Daily Summary

Daily Weather History Graph

Daily Weather History Graph

Search for Another Location

Airport or City:

Trip Planner

Search our weather history database for the weather conditions in past years. The results will help you decide how hot, cold, wet, or windy it might be!

Date:

Astronomy

Mar. 27, 2014 Rise Set
Actual Time 6:56 AM PDT 7:22 PM PDT
Civil Twilight 6:30 AM PDT 7:48 PM PDT
Nautical Twilight 5:59 AM PDT 8:19 PM PDT
Astronomical Twilight 5:28 AM PDT 8:50 PM PDT
Moon 4:47 AM PDT (3/27) 4:18 PM PDT (3/27)
Length of Visible Light 13h 18m
Length of Day
12h 25m
Waning Crescent, 12% of the Moon is Illuminated
Mar 27
Waning Crescent
Mar 30
New
Apr 7
First Quarter
Apr 15
Full
Apr 22
Last Quarter

Hourly Weather History & Observations

Time (PDT) Temp. Windchill Dew Point Humidity Pressure Visibility Wind Dir Wind Speed Gust Speed Precip Events Conditions
12:53 AM 50.0 °F - 48.0 °F 93% 30.00 in 10.0 mi Calm Calm - N/A   Mostly Cloudy
1:53 AM 50.0 °F - 46.9 °F 89% 30.00 in 10.0 mi Calm Calm - N/A   Mostly Cloudy
2:53 AM 48.9 °F - 46.9 °F 93% 30.00 in 10.0 mi Calm Calm - N/A   Mostly Cloudy
3:53 AM 46.9 °F - 45.0 °F 93% 30.00 in 7.0 mi Calm Calm - N/A   Clear
4:53 AM 46.9 °F - 46.0 °F 97% 30.00 in 10.0 mi Calm Calm - N/A   Clear
5:53 AM 48.0 °F - 46.0 °F 93% 30.01 in 10.0 mi ENE 5.8 mph - N/A   Clear
6:53 AM 46.0 °F 43.9 °F 45.0 °F 96% 30.03 in 10.0 mi SE 4.6 mph - N/A   Scattered Clouds
7:53 AM 48.9 °F - 46.9 °F 93% 30.06 in 10.0 mi Calm Calm - N/A   Mostly Cloudy
8:53 AM 50.0 °F - 48.0 °F 93% 30.07 in 10.0 mi Calm Calm - N/A   Scattered Clouds
9:53 AM 55.0 °F - 48.0 °F 77% 30.09 in 10.0 mi ENE 4.6 mph - N/A   Clear
10:53 AM 57.9 °F - 48.0 °F 70% 30.10 in 10.0 mi Variable 3.5 mph - N/A   Clear
11:53 AM 60.1 °F - 43.0 °F 53% 30.10 in 10.0 mi Calm Calm - N/A   Mostly Cloudy
12:53 PM 64.0 °F - - N/A% 30.10 in 10.0 mi North - - N/A   Unknown
1:53 PM 63.0 °F - 43.0 °F 48% 30.09 in 10.0 mi ENE 6.9 mph - N/A   Overcast
2:53 PM 63.0 °F - 41.0 °F 45% 30.07 in 10.0 mi WNW 3.5 mph - N/A   Mostly Cloudy
3:53 PM 64.0 °F - 42.1 °F 45% 30.07 in 10.0 mi North 5.8 mph - N/A   Overcast
4:53 PM 64.0 °F - 43.0 °F 46% 30.06 in 10.0 mi NE 4.6 mph - N/A   Overcast
5:53 PM 63.0 °F - 43.0 °F 48% 30.06 in 10.0 mi ENE 6.9 mph - N/A   Mostly Cloudy
6:53 PM 62.1 °F - 41.0 °F 46% 30.07 in 10.0 mi NNE 6.9 mph - 0.00 in Rain Light Rain
7:53 PM 60.1 °F - 43.0 °F 53% 30.09 in 10.0 mi North 3.5 mph - 0.00 in   Mostly Cloudy
8:53 PM 60.1 °F - 44.1 °F 55% 30.10 in 10.0 mi North 4.6 mph - N/A   Overcast
9:53 PM 59.0 °F - 44.1 °F 58% 30.11 in 10.0 mi Calm Calm - N/A   Overcast
10:53 PM 55.0 °F - 46.0 °F 72% 30.13 in 10.0 mi West 5.8 mph - N/A   Clear
11:53 PM 53.1 °F - 45.0 °F 74% 30.14 in 10.0 mi NW 6.9 mph - N/A   Clear